{"data":{"norad_id":69405,"epoch":"2026-09-20T04:06:14.077728Z","epoch_age_seconds":62851,"freshness":"FRESH","line1":"1 69405U 26125E   26263.17099627  .00000025  00000+0  20444-4 0  9994","line2":"2 69405  88.9885 270.3475 0002185  99.3481 260.7918 13.51007334 14779","mean_motion":13.51007334,"eccentricity":0.0002185,"inclination_deg":88.9885,"raan_deg":270.3475,"arg_perigee_deg":99.3481,"mean_anomaly_deg":260.7918,"bstar":2.0444e-5,"rev_number":1477,"period_min":106.58713418946,"perigee_km":1066.9275332156,"apogee_km":1070.1817374602,"semimajor_km":7446.6916353379,"source":"CELESTRAK","updated_at":"2026-09-20T09:00:24.865592Z"}}